Chihuahua, Mexico

8:04 AM MST on November 19, 2017 (GMT -0700)
Gen Div P A Roberto Fierro

Weather History for MMCU - February, 2014

Change the Weather History Date:

Wednesday, February 26, 2014

  Actual Average Record
Temperature  
Mean Temperature 60 °F -  
Max Temperature 75 °F 70 °F 87 °F (2009)
Min Temperature 46 °F 36 °F 28 °F (2004)
Degree Days  
Heating Degree Days 4    
Growing Degree Days 10 (Base 50)    
Moisture  
Dew Point 37 °F    
Average Humidity 37    
Maximum Humidity 57    
Minimum Humidity 25    
Precipitation  
Precipitation 0.01 in - - ()
Sea Level Pressure  
Sea Level Pressure 29.93 in    
Wind  
Wind Speed 7 mph ()    
Max Wind Speed 16 mph    
Max Gust Speed -    
Visibility 7.9 miles    
Events      
Averages and records for this station are not official NWS values.
T = Trace of Precipitation, MM = Missing Value Source: Averaged Metar Reports

Daily Weather History Graph

Daily Weather History Graph

Search for Another Location

Airport or City:

Trip Planner

Search our weather history database for the weather conditions in past years. The results will help you decide how hot, cold, wet, or windy it might be!

Date:

Astronomy

Feb. 26, 2014 Rise Set
Actual Time 6:31 AM MST 6:01 PM MST
Civil Twilight 6:08 AM MST 6:25 PM MST
Nautical Twilight 5:40 AM MST 6:53 PM MST
Astronomical Twilight 5:13 AM MST 7:20 PM MST
Moon 4:10 AM MST (2/26) 3:28 PM MST (2/26)
Length of Visible Light 12h 17m
Length of Day
11h 29m
Waning Crescent, 9% of the Moon is Illuminated
Feb 26
Waning Crescent
Mar 1
New
Mar 8
First Quarter
Mar 16
Full
Mar 23
Last Quarter

Hourly Weather History & Observations

Time (MST) Temp. Windchill Dew Point Humidity Pressure Visibility Wind Dir Wind Speed Gust Speed Precip Events Conditions
1:45 AM 64 °F - 41 °F 31% 29.75 in 1 mi WNW 6.7 mph - -   Overcast
4:40 AM 59.0 °F - 32.0 °F 36% 29.86 in 10.0 mi South 5.8 mph - N/A   Mostly Cloudy
4:45 AM 61 °F - 40 °F 34% 29.76 in 1 mi WNW 6.7 mph - -   Overcast
5:41 AM 60.8 °F - 32.0 °F 34% 30.09 in 10.0 mi SSW 8.1 mph - N/A   Mostly Cloudy
6:42 AM 59.0 °F - 32.0 °F 36% 30.11 in 10.0 mi South 6.9 mph - N/A   Overcast
7:40 AM 59.0 °F - 32.0 °F 36% 29.91 in 10.0 mi SSW 5.8 mph - N/A   Overcast
7:45 AM 62 °F - 40 °F 33% 29.82 in 6 mi WNW 6.7 mph - -   Overcast
8:40 AM 59.0 °F - 33.8 °F 39% 30.14 in 10.0 mi North 15.0 mph - N/A   Overcast
9:40 AM 59.0 °F - 35.6 °F 42% 30.16 in 10.0 mi North 16.1 mph - N/A   Overcast
10:40 AM 63 °F - 45 °F 41% 29.86 in 6 mi ENE 6.7 mph - -   Mostly Cloudy
10:40 AM 62.6 °F - 37.4 °F 39% 29.97 in 10.0 mi North 12.7 mph - N/A   Mostly Cloudy
11:40 AM 66.2 °F - 37.4 °F 35% 30.12 in 10.0 mi NNE 8.1 mph - N/A   Mostly Cloudy
12:40 PM 68.0 °F - 37.4 °F 33% 30.07 in 10.0 mi ESE 11.5 mph - N/A   Mostly Cloudy
1:49 PM 71.6 °F - 35.6 °F 27% 29.81 in 10.0 mi WSW 6.9 mph - N/A   Scattered Clouds
1:50 PM 69 °F - 44 °F 28% 29.71 in 6 mi East 4.5 mph - -   Scattered Clouds
2:45 PM 73.4 °F - 35.6 °F 25% 29.99 in 10.0 mi West 16.1 mph - N/A   Mostly Cloudy
3:40 PM 69.8 °F - 35.6 °F 28% 29.97 in 10.0 mi East 11.5 mph - N/A   Mostly Cloudy
4:40 PM 66.2 °F - 35.6 °F 32% 29.78 in 10.0 mi ESE 9.2 mph - N/A   Mostly Cloudy
5:40 PM 66.2 °F - 35.6 °F 32% 30.00 in 10.0 mi NNE 9.2 mph - N/A   Mostly Cloudy
6:40 PM 62.6 °F - 37.4 °F 39% 30.03 in 10.0 mi Calm Calm - N/A   Mostly Cloudy
7:40 PM 63 °F - 43 °F 36% 29.71 in 1 mi West 2.2 mph - -   Partly Cloudy
7:40 PM 59.0 °F - 35.6 °F 42% 29.89 in 10.0 mi North 10.4 mph - N/A   Scattered Clouds
8:40 PM 55.4 °F - 35.6 °F 47% 30.07 in 10.0 mi Calm Calm - N/A   Partly Cloudy
9:40 PM 48.2 °F - 32.0 °F 54% 30.08 in 10.0 mi South 3.5 mph - N/A   Scattered Clouds
10:40 PM 55 °F - 38 °F 40% 29.77 in 1 mi North 2.2 mph - -   Partly Cloudy
10:40 PM 46.4 °F 42.4 °F 32.0 °F 57% 29.97 in 10.0 mi SE 8.1 mph - N/A   Partly Cloudy
11:00 PM 55 °F - 38 °F 40% 29.77 in 1 mi North 2.2 mph - -   Partly Cloudy